User: anonymous   Login
Location: Newark
(39.4242°N, 80.8531°W)
Time: 01:23:14
(UTC+00:00)
Language:

PRISM - Orbit

View from above orbital plane
View from above orbital plane
View from above satellite
View from above satellite

Ground track
Ground track

The orbit data is extracted from the following two-line orbital elements,

1 33493U 09002B   20092.85438615 +.00000539 +00000-0 +52426-4 0  9996
2 33493 098.1395 030.0003 0014000 314.5776 045.4301 14.96965663608245
Epoch (UTC): 01 April 2020 20:30:18
Eccentricity: 0.0014000
inclination: 98.1395°
perigee height: 566 km
apogee height: 586 km
right ascension of ascending node: 30.0003°
argument of perigee: 314.5776°
revolutions per day: 14.96965663
mean anomaly at epoch: 45.4301°
orbit number at epoch: 60824

The dashed part of the orbit path shows where the satellite is in the earth's shadow,  

DLR